GW5292 Weather Reports


time (UTC)temp
F
wind
direction
speed
knots
gust
knots
rain 1hr
in
rain 24hr
in
rain mn
in
humidity
%
barometer
mb
20260506221504 67 203 0.9 4.3 0.00 0.25 0.25 81 1007.1
20260506220008 67 198 1.7 4.3 0.00 0.25 0.25 80 1006.9
20260506214510 67 206 0.9 5.2 0.00 0.25 0.25 81 1006.8
20260506213012 66 209 1.7 4.3 0.00 0.25 0.25 83 1006.7
20260506211504 65 111 0.0 1.7 0.00 0.25 0.25 85 1006.5
20260506210007 65 207 0.9 4.3 0.00 0.25 0.25 85 1006.6
20260506204508 65 196 2.6 4.3 0.00 0.25 0.25 85 1006.5
20260506203011 64 202 1.7 4.3 0.00 0.25 0.25 85 1006.6
20260506201519 64 216 1.7 4.3 0.00 0.25 0.25 86 1006.6
20260506200004 64 198 3.5 7.0 0.00 0.25 0.25 85 1006.6
20260506194508 64 198 2.6 7.0 0.00 0.25 0.25 86 1006.6
20260506193021 64 194 3.5 5.2 0.00 0.25 0.25 87 1006.6
20260506191515 63 203 2.6 5.2 0.00 0.25 0.25 88 1006.7
20260506190016 63 228 3.5 8.7 0.00 0.25 0.25 89 1006.9
20260506184505 62 208 3.5 8.7 0.00 0.25 0.25 89 1007.1
20260506183010 61 213 2.6 4.3 0.00 0.25 0.25 90 1007.3
20260506181512 61 207 3.5 7.0 0.00 0.25 0.25 91 1007.4
20260506180025 61 194 3.5 7.0 0.01 0.25 0.25 91 1007.4
20260506174517 61 200 3.5 6.1 0.02 0.25 0.25 91 1007.6
20260506173007 61 202 4.3 7.0 0.04 0.25 0.25 91 1007.5
20260506171512 61 209 1.7 7.8 0.04 0.25 0.25 91 1007.5
20260506170003 61 195 2.6 4.3 0.04 0.24 0.24 91 1007.6
20260506164517 61 201 3.5 6.1 0.04 0.23 0.23 90 1007.8
20260506163010 61 197 3.5 7.0 0.04 0.21 0.21 89 1007.8
20260506161512 61 203 4.3 9.6 0.06 0.21 0.21 89 1007.7
20260506160003 61 213 3.5 9.6 0.09 0.20 0.20 90 1007.3
20260506154503 61 212 3.5 10.4 0.10 0.19 0.19 90 1007.6
20260506153003 61 217 2.6 7.8 0.10 0.17 0.17 90 1008.2
20260506151507 61 177 4.3 8.7 0.10 0.15 0.15 90 1008.6
20260506150011 62 205 5.2 9.6 0.07 0.11 0.11 88 1008.6
20260506144503 62 201 4.3 7.8 0.05 0.09 0.09 88 1008.3
20260506143004 62 201 3.5 7.8 0.04 0.07 0.07 88 1008.3
20260506141518 61 207 3.5 7.0 0.03 0.05 0.05 87 1008.1
20260506140020 62 211 4.3 9.6 0.03 0.04 0.04 86 1008.4
20260506134516 62 202 2.6 7.8 0.03 0.04 0.04 86 1008.3
20260506133003 62 205 3.5 5.2 0.03 0.03 0.03 86 1008.4
20260506131509 62 198 1.7 5.2 0.02 0.02 0.02 86 1008.8
20260506130008 62 210 3.5 6.1 0.01 0.01 0.01 85 1008.8
20260506124513 62 202 2.6 7.0 0.01 0.01 0.01 84 1008.8
20260506123018 63 199 2.6 6.1 0.00 0.00 0.00 82 1008.9
20260506121508 63 185 4.3 7.0 0.00 0.00 0.00 80 1008.7
20260506120011 64 214 3.5 7.0 0.00 0.00 0.00 78 1008.5
20260506114510 65 196 2.6 7.0 0.00 0.00 0.00 75 1008.5
20260506113013 65 203 2.6 6.1 0.00 0.00 0.00 72 1008.3
20260506111523 66 181 3.5 6.1 0.00 0.00 0.00 71 1008.3
20260506110006 66 200 4.3 13.9 0.00 0.00 0.00 70 1008.1
20260506104513 66 198 5.2 10.4 0.00 0.00 0.00 70 1007.9
20260506103034 66 210 5.2 10.4 0.00 0.00 0.00 69 1007.8
20260506101519 67 158 3.5 10.4 0.00 0.00 0.00 69 1007.7
20260506100023 67 221 4.3 9.6 0.00 0.00 0.00 68 1007.6
20260506094510 67 198 3.5 13.9 0.00 0.00 0.00 67 1007.9
20260506093020 67 196 3.5 9.6 0.00 0.00 0.00 66 1007.9
20260506091519 68 161 6.1 12.2 0.00 0.00 0.00 65 1007.7
20260506090024 68 192 5.2 8.7 0.00 0.00 0.00 64 1007.6
20260506084558 68 224 4.3 10.4 0.00 0.00 0.00 63 1007.8
20260506083013 68 206 7.0 11.3 0.00 0.00 0.00 61 1007.8
20260506081518 69 216 5.2 9.6 0.00 0.00 0.00 60 1007.8
20260506073027 69 197 4.3 9.6 0.00 0.00 0.00 58 1007.9
20260506071516 69 200 5.2 7.0 0.00 0.00 0.00 57 1008.0
20260506061514 70 190 4.3 10.4 0.00 0.00 0.00 54 1008.3
20260506044521 71 192 5.2 13.0 0.00 0.00 0.00 49 1008.9
20260506043004 71 173 7.8 13.9 0.00 0.00 0.00 48 1009.0
20260506041507 71 200 5.2 10.4 0.00 0.00 0.00 47 1009.0
20260506040009 72 207 5.2 12.2 0.00 0.00 0.00 46 1009.1
20260506034522 72 155 4.3 9.6 0.00 0.00 0.00 45 1009.0
20260506033022 72 181 6.1 9.6 0.00 0.00 0.00 45 1008.9
20260506031504 73 191 5.2 10.4 0.00 0.00 0.00 44 1008.9
20260506030010 73 212 6.1 14.8 0.00 0.00 0.00 44 1008.9
20260506024513 73 196 6.1 9.6 0.00 0.00 0.00 43 1008.8
20260506023034 73 150 7.0 12.2 0.00 0.00 0.00 44 1009.0
20260506021533 73 177 3.5 6.1 0.00 0.00 0.00 44 1009.1
20260506020007 74 211 3.5 7.8 0.00 0.00 0.00 42 1008.9
20260506014513 74 184 7.0 8.7 0.00 0.00 0.00 42 1008.8
20260506013027 74 199 4.3 7.8 0.00 0.00 0.00 40 1008.7
20260506011524 75 195 4.3 7.0 0.00 0.00 0.00 40 1008.5
20260506010003 76 167 4.3 7.8 0.00 0.00 0.00 38 1008.2
20260506004511 76 208 4.3 10.4 0.00 0.00 0.00 38 1007.9
20260506003017 76 200 4.3 7.8 0.00 0.00 0.00 38 1008.0
20260506001503 76 187 4.3 8.7 0.00 0.00 0.00 38 1007.9
20260506000003 77 154 6.1 10.4 0.00 0.00 0.00 37 1007.7
20260505234507 77 212 4.3 8.7 0.00 0.00 0.00 38 1007.6
20260505233002 77 219 4.3 11.3 0.00 0.00 0.00 37 1007.5
20260505231503 78 192 4.3 8.7 0.00 0.00 0.00 37 1007.5
20260505230010 78 186 5.2 11.3 0.00 0.00 0.00 36 1007.4
20260505224505 78 192 3.5 9.6 0.00 0.00 0.00 36 1007.5
20260505223008 79 184 4.3 13.0 0.00 0.00 0.00 35 1007.3